Showing default

SPACEWAY 3, 32018

Orbit data source: Space-Track

SPACEWAY 3, 32018 is a payload satellite owned by Hughes NS (US) in GEO that was launched on Tue, 14 Aug 2007 UTC via an ARIANE 5ECA launch vehicle from the French Guiana (FRGUI). Payloads include a variety of satellites, spacecraft, and rockets equipped with specific instruments for various scientific and technological missions. These include communications satellites like Starlink; space stations such as the ISS; scientific satellites like the Hubble; Earth observation satellites from companies like Planet Labs, Umbra, and HawkEye 360; GPS; miniature CubeSats for education and research; and military/defense satellites.

Not visible in the next 10 days
SPACEWAY 3 details
Identifier
32018, 2007-036A
Orbit
GEO
Last TLE update17 hours ago
Origin
Flag of USHughes NS (US)
ManufacturerBoeing/ES
MissionNon-operational Commercial Communications
Bus & MotorBSS-702HP, R-4D-15-375
Mass6,075 kg wet, 3,655 kg dry
Launch date (UTC)
2007-08-14 (17 years ago)
Launch vehicle
ARIANE 5ECA
Launch site
French Guiana (FRGUI)
Object type
Payload
Rocket body
Debris
Shape & HBRBox + 2 Pan, 40.9 m
Radar Cross Section53.753 m², Large (>1 m²)

Expand to show TLE details & history

TLE from 17 hours ago
0 SPACEWAY 3
1 32018U 07036A   25035.47017029 -.00000069  00000-0  00000-0 0  9991
2 32018   2.7065  83.0888 0002147 141.0957 271.4328  0.99141404 41523
Epoch: 2025-02-04T11:17Z
Definitive object data (Epoch: 2025-02-04T11:17:02.713Z)
Latitude2.16005°
Longitude-168.55261°
Altitude36,105.499 km
Speed3.063 km/s
True Right ascension09h 02m 20s
True Declination2° 09' 28"
Sunlit
Object was in daylight at TLE epoch
Visualization TLE readout
Latitude-2.26179°
Longitude83.05156°
Altitude36,114.924 km
Speed3.062 km/s
Apparent Right ascension01h 23m 28s
Apparent Declination-8° 01' 48"
Sunlit
Object is in daylight
Visualization observer readout
Local Sidereal Time06:13:34
Azimuth252.492° W
Elevation7.956°
Doppler factor1
Orbital elements
Apogee altitude36,116.67 km
Perigee altitude36,098.426 km
Semi-major axis42,485.685 km
Eccentricity0.0002147
Inclination2.7065°
RAAN83.0888°
Arg. of periapsis141.0957°
True anomaly271.4082°
Mean anomaly271.4328°
Eccentric anomaly271.4205°
Mean motion0.24784 °/min
BSTARUnknown
Orbital period1452.52 mins
Loading historical data...
32018 neighbors
Authenticating...
Loading maneuver chart data...
Loading historical data...
Loading historical data...
Loading historical data...
Loading historical data...
Loading historical data...
Loading historical data...
Loading historical data...
Other satellites on launch #36 in the year 2007 (2007-08-14 UTC)

SPACEWAY 3 Visibility forecast

Observer location: undefined°, undefined

SPACEWAY 3 is not visible in the next 10 days
Span
Click to sort rows by Start time (UTC) header in descending order
Start Az.
Max El. time (UTC)
Max El. Az.
Max El.
End time (UTC)
End Az.
|